This is the latest recevied weather packets stored in our database for station/object DG2US-10. If no packets are shown the sender has not sent any weather packets the latest 10 day(s).
| Time | Temp. | Humidity | Pressure | Rain* | Wind** | Luminosity | Snow |
|---|---|---|---|---|---|---|---|
| 1777780533 | 12.78° C | 34% | 1015.2 hPa | - | - | - | - |
| 1777779633 | 12.78° C | 34% | 1015.1 hPa | - | - | - | - |
| 1777778733 | 12.78° C | 34% | 1015.1 hPa | - | - | - | - |
| 1777777833 | 13.33° C | 33% | 1015.2 hPa | - | - | - | - |
| 1777776933 | 13.33° C | 33% | 1015.1 hPa | - | - | - | - |
| 1777776033 | 13.89° C | 33% | 1015.2 hPa | - | - | - | - |
| 1777775133 | 13.89° C | 33% | 1015.3 hPa | - | - | - | - |
| 1777774233 | 13.89° C | 33% | 1015.4 hPa | - | - | - | - |
| 1777773333 | 14.44° C | 33% | 1015.5 hPa | - | - | - | - |
| 1777772433 | 14.44° C | 32% | 1015.6 hPa | - | - | - | - |
| 1777771533 | 15° C | 33% | 1015.6 hPa | - | - | - | - |
| 1777770633 | 15° C | 32% | 1015.7 hPa | - | - | - | - |
| 1777769733 | 15.56° C | 32% | 1015.7 hPa | - | - | - | - |
| 1777768832 | 15.56° C | 31% | 1015.8 hPa | - | - | - | - |
| 1777767932 | 16.11° C | 31% | 1015.8 hPa | - | - | - | - |
| 1777767032 | 16.11° C | 32% | 1015.8 hPa | - | - | - | - |
| 1777766132 | 16.11° C | 31% | 1016 hPa | - | - | - | - |
| 1777765232 | 16.67° C | 31% | 1016 hPa | - | - | - | - |
| 1777764332 | 17.22° C | 30% | 1016.2 hPa | - | - | - | - |
| 1777763432 | 17.78° C | 30% | 1016.4 hPa | - | - | - | - |
| 1777762532 | 17.78° C | 30% | 1016.4 hPa | - | - | - | - |
| 1777761632 | 18.33° C | 29% | 1016.5 hPa | - | - | - | - |
| 1777760732 | 18.89° C | 29% | 1016.6 hPa | - | - | - | - |
| 1777759832 | 18.89° C | 29% | 1016.6 hPa | - | - | - | - |
| 1777758932 | 19.44° C | 28% | 1016.6 hPa | - | - | - | - |
* Rain since midnight (hover to see other rain measurements)
** Current wind speed in m/s (hover to see current wind gust speed)